ARIANE 44LP DEB, 26808

Orbit data source: Space-Track

ARIANE 44LP DEB, 26808 is space debris in HEO originally from a launch on Sun, 11 Dec 1988 UTC launched from the French Guiana (FRGUI). Debris objects in space refer to the collection of defunct objects orbiting the Earth. Examples of debris include non-operational satellites, rocket bodies, and fragments generated from explosions, collisions, or faulty payload assembly.

Loading next visibility...
Identifier
26808, 1988-109L
Orbit
HEO
Country
Flag of FRFR
Related business
Manufacturer
Unknown
Mission
Spacecraft
Bus & Motor
Unknown
Mass
Unknown
Launch date (UTC)
1988-12-11 (38 years ago)
Launch vehicle
Unknown
Launch site
French Guiana (FRGUI)
Object type
Payload
Rocket body
Debris
Shape & HBR
Unknown shape, 1.1 m
Radar Cross Section
Medium (>0.1 m² and <1 m²)

Expand to show TLE details & history
Last TLE update: 10 months ago

TLE from 10 months ago
0 ARIANE 44LP DEB
1 26808U 88109L   25303.14608014 -.00000090  00000-0 -97344-3 0  9998
2 26808   6.2305 108.8844 7218914 324.8065 312.6135  2.14409840 91479
Epoch: 2025-10-30T03:30Z
TLE epoch observation values (Epoch: 2025-10-30T03:30:21.324Z)
Latitude
-0.99943°
Longitude
-152.97494°
Altitude
18,584.061 km
Speed
4.03 km/s
True Right ascension
19h 53m 17s
True Declination
0° 59' 52"
Sunlit
Object was in daylight at epoch
Visualization orbit readout
Latitude
Unknown
Longitude
Unknown
Altitude
Unknown
Speed
Unknown
Apparent Right ascension
Unknown
Apparent Declination
Unknown
Sunlit
N/A
Visualization observer readout
Local Sidereal Time
07:35:22
Azimuth
Unknown
Elevation
Unknown
Doppler factor
Unknown
Orbital elements
Apogee altitude
37,373.998 km
Perigee altitude
688.421 km
Semi-major axis
25,409.346 km
Eccentricity
0.72189
Inclination
6.2305°
RAAN
108.8844°
Arg. of periapsis
324.8065°
True anomaly
224.66961°
Mean anomaly
312.6135°
Eccentric anomaly
271.26221°
Mean motion
0.53586 °/min
Orbital period
671.81 mins
BSTAR
-0.00097344
Loading maneuver chart data...
Computing Atmospheric mass density...
Loading historical data...
Loading historical data...
Loading historical data...
Loading historical data...
Loading historical data...
Loading historical data...
Loading historical data...

Documentation

Showing up to 5 results
|